Regional Weather Roundup
Issued by NWS

Home | Current Version | Previous Version | Text Only | Print | Product List | Glossary Off
Versions: 1 2 3 4 5 6 7 8 9 10 11 12 13 14 15 16 17 18 19 20 21 22 23 24 25 26 27 28 29 30 31 32 33 34 35 36 37 38 39 40 41 42 43 44 45 46 47 48 49 50

000
ASUS43 KMPX 120901
RWRMN
WEATHER ROUNDUP FOR MINNESOTA
NATIONAL WEATHER SERVICE TWIN CITIES/CHANHASSEN MN
400 AM CDT SAT JUL 12 2014


NOTE: "FAIR" INDICATES FEW OR NO CLOUDS BELOW 12,000 FEET WITH NO
SIGNIFICANT WEATHER AND/OR OBSTRUCTIONS TO VISIBILITY. N/A MEANS
CURRENT SKY AND/OR WEATHER CONDITIONS ARE NOT AVAILABLE.

MNZ060>063-068>070-121000-
   Twin Cities Metro

CITY           SKY/WX    TMP DP  RH WIND       PRES   REMARKS
TWIN CITIES    MOCLDY    71  68  90 S6        29.98S
ST PAUL        PTCLDY    69  67  93 SE7       29.98S
CRYSTAL        MOCLDY    71  68  90 S5        29.97S
BLAINE         MOCLDY    72  70  94 S3        29.98S
LAKEVILLE      PTCLDY    66  66 100 CALM      29.99S FOG
EDEN PRAIRIE   MOCLDY    70  68  93 SW5       29.98S FOG
SOUTH ST PAUL  PTCLDY    69  67  94 CALM      29.98S
LAKE ELMO      FAIR      66  64  94 CALM      30.00R FOG
$$
MNZ001>005-007-008-013>017-022>024-027-028-121000-
   Northwest Minnesota

CITY           SKY/WX    TMP DP  RH WIND       PRES   REMARKS
BEMIDJI        CLEAR     55  52  89 NW3       30.02F
HALLOCK        CLEAR     55  54  94 CALM      30.01S
ROSEAU         PTCLDY    57  52  82 S3        30.01R
WARROAD        PTCLDY    59  54  82 W3        30.01S
THIEF RVR FALL CLEAR     57  55  94 CALM      30.03S
CROOKSTON      CLEAR     55  54  94 NW3       30.03F
FOSSTON        CLEAR     52  48  87 CALM      30.04S
DETROIT LAKES  PTCLDY    63  57  82 CALM      30.04F
MOORHEAD       PTCLDY    63  63 100 CALM      30.04R
PARK RAPIDS    PTCLDY    59  55  87 CALM      30.02F
$$
MNZ006-009>011-018-025>026-121000-
   North Central Minnesota

CITY           SKY/WX    TMP DP  RH WIND       PRES   REMARKS
BAUDETTE       CLEAR     55  53  93 CALM      30.01R
FLAG ISLAND    CLEAR     63  55  77 NW13      29.98S HAZE
INTL FALLS     PTCLDY    51  50  96 CALM      29.98R
BIG FORK       CLEAR     54  52  94 CALM      30.02R
LONGVILLE      PTCLDY    57  57 100 CALM      30.01S
GRAND RAPIDS   CLEAR     57  54  88 CALM      30.01S
CRANE LAKE     CLEAR     50  48  93 CALM      30.00S FOG
ORR            CLEAR     55  52  88 CALM      29.98R
COOK           CLEAR     54  54 100 CALM      30.00S
$$
MNZ012-019>021-037-121000-
   Northeast Minnesota

CITY           SKY/WX    TMP DP  RH WIND       PRES   REMARKS
DULUTH         PTCLDY    65  62  90 NW7       29.98S
ELY            CLEAR     52  52 100 CALM      29.98S FOG
HIBBING        CLEAR     51  49  92 CALM      30.00R FOG
EVELETH          N/A     52  52 100 CALM      30.00S FOG
DULUTH HARBOR  PTCLDY    66  64  94 SW6       29.96S
TWO HARBORS    PTCLDY    63  57  82 NW3       29.95S
SILVER BAY     PTCLDY    61  61 100 CALM      29.94S
GRAND MARAIS     N/A     43  42  97 CALM      29.92S
G MARAIS ARPRT CLEAR     61  55  82 NW5       29.98R
$$
MNZ029>031-032-039>041-046>048-054>057-064-121000-
   West Central Minnesota

CITY           SKY/WX    TMP DP  RH WIND       PRES   REMARKS
FERGUS FALLS   CLOUDY    66  55  68 CALM      30.02S
WHEATON        CLOUDY    64  55  72 CALM      30.04S
MORRIS         CLOUDY    66  61  82 N5        30.01R
ALEXANDRIA     CLOUDY    70  56  61 N9        30.04R
ELBOW LAKE     FAIR      66  59  77 N5        30.02R
WADENA         MOCLDY    63  57  82 CALM      30.03R
GLENWOOD       CLOUDY    66  61  82 N7        30.03R
APPLETON       CLOUDY    72  64  78 N6        29.99S
BENSON         CLOUDY    70  63  78 NE5       30.00R
ORTONVILLE     MOCLDY    72  57  60 N8        30.01S
MADISON        CLOUDY    73  66  78 N6        30.00R
WILLMAR        MOCLDY    73  70  88 NE3       30.01R
$$
MNZ033>034-036-042>043-049>051-058-059-121000-
   Central Minnesota

CITY           SKY/WX    TMP DP  RH WIND       PRES   REMARKS
ST CLOUD       FOG       67  66  97 CALM      29.98S VSB 1/4
SAUK CENTRE    FAIR      68  64  87 N3        30.02R
PAYNESVILLE    CLOUDY    67  65  91 NW5       30.01R
AITKIN           N/A     61  55  82 CALM      29.99S HAZE
PINE RIVER     PTCLDY    59  57  94 CALM      30.04F
BRAINERD       MOCLDY    69  60  73 N3        30.01S
STAPLES        CLOUDY    61  57  88 N3        30.02S
LONG PRAIRIE   MOCLDY    64  59  82 NW5       30.02S
LITTLE FALLS   FOG       63  61  94 CALM      30.01R VSB 1/4
LITCHFIELD     MOCLDY    73  73 100 CALM      30.00S
BUFFALO        MOCLDY    69  67  93 CALM      30.00R FOG
MAPLE LAKE     FOG       70  70  99 CALM      30.00R VSB 3/4
$$
MNZ037-044-045-052-053-121000-
   East Central Minnesota

CITY           SKY/WX    TMP DP  RH WIND       PRES   REMARKS
PRINCETON      FOG       68  66  94 CALM      29.98S VSB<1/4
MORA           FOG       64  64 100 CALM      30.00S VSB 1/4
CAMBRIDGE      HAZE      70  61  73 CALM      29.97R VSB 1/4
RUSH CITY      FOG       65  64  95 CALM      29.98S VSB 1
MOOSE LAKE     MOCLDY    59  57  94 SW3       29.98R FOG
HINCKLEY         N/A     63  63 100 CALM      29.98S FOG
CLOQUET        PTCLDY    64  61  88 NW6       29.99S
MCGREGOR       MOCLDY    59  59 100 CALM      30.00S
$$
MNZ071>073-080-081-089-090-097-098-121000-
   Southwest Minnesota

CITY           SKY/WX    TMP DP  RH WIND       PRES   REMARKS
MONTEVIDEO     CLOUDY    73  72  94 NE7       30.00R
GRANITE FALLS  CLOUDY    72  70  94 S5        30.00S
CANBY          CLOUDY    71  67  89 NW7       30.02R
MARSHALL       CLOUDY    73  70  88 W6        29.99S
REDWOOD FALLS  CLOUDY    73  71  93 SW5       29.98S FOG
OLIVIA         CLOUDY    72  70  94 CALM      29.99R FOG
PIPESTONE      CLOUDY    72  70  94 SW9       30.05S FOG
WINDOM         CLOUDY    72  70  94 SW6       30.05R FOG
WORTHINGTON    CLOUDY    75  70  83 SW9       30.07R
JACKSON        CLOUDY    72  68  88 SW7       30.06R
TRACY          CLOUDY    73  71  93 SW9       30.02R FOG
SLAYTON        CLOUDY    71  70  98 CALM      30.05S FOG
$$
MNZ065>067-074>077-082>085-091>093-121000-
   South Central Minnesota

CITY           SKY/WX    TMP DP  RH WIND       PRES   REMARKS
MANKATO        MOCLDY    70  64  83 S6        30.01R
NEW ULM        MOCLDY    70  70 100 S8        30.00R FOG
ST JAMES       CLOUDY    72  70  94 S5        30.03R FOG
FAIRMONT       CLOUDY    70  64  83 SW8       30.05R
GLENCOE        MOCLDY    70  67  90 S3        29.99R FOG
FARIBAULT      CLEAR     72  64  78 CALM      30.00F HAZE
OWATONNA       PTCLDY    70  66  88 CALM      30.01R FOG
WASECA         MOCLDY    68  63  83 S6        30.03S HAZE
ALBERT LEA     CLOUDY    68  66  94 SW3       30.03R FOG
$$
MNZ078>079-086>088-094>096-121000-
   Southeast Minnesota

CITY           SKY/WX    TMP DP  RH WIND       PRES   REMARKS
ROCHESTER      PTCLDY    68  65  90 CALM      30.03S FOG
RED WING       MOCLDY    72  66  83 CALM      29.98S
STANTON        CLEAR     68  65  91 CALM      29.98F FOG
DODGE CENTER   PTCLDY    66  66 100 SW5       30.02R FOG
WINONA         CLOUDY    70  68  94 CALM      30.00S
AUSTIN         MOCLDY    70  66  88 CALM      30.03R FOG
PRESTON        CLOUDY    68  67  96 SW3       30.03S FOG
$$
ABBREVIATIONS USED IN REMARKS
   TC - TEMPERATURES IN CELSIUS
  WCI - WIND CHILL INDEX
   HX - HEAT INDEX
  VSB - VISIBILITY
$$



USA.gov is the U.S. government's official web portal to all federal, state and local government web resources and services.